GW4974 Weather Reports


Display with metric or nautical units.
time (UTC)temp
F
wind
direction
speed
MPH
gust
MPH
rain 1hr
in
rain 24hr
in
rain mn
in
humidity
%
barometer
mb
20260506051040 63 359 1.0 2.0 0.00 0.00 0.00 65 1009.9
20260506050538 64 314 1.0 2.0 0.00 0.00 0.00 63 1010.0
20260506045029 64 119 0.0 2.0 0.00 0.00 0.00 61 1010.1
20260506044527 63 143 0.0 2.0 0.00 0.00 0.00 62 1010.2
20260506044023 63 23 0.0 2.0 0.00 0.00 0.00 63 1010.2
20260506043520 63 303 1.0 3.0 0.00 0.00 0.00 63 1010.2
20260506043019 62 324 0.0 3.0 0.00 0.00 0.00 64 1010.1
20260506042518 63 296 1.0 2.0 0.00 0.00 0.00 66 1009.9
20260506042015 62 300 0.0 3.0 0.00 0.00 0.00 65 1010.0
20260506041514 62 304 1.0 2.0 0.00 0.00 0.00 67 1010.1
20260506041010 62 259 1.0 2.0 0.00 0.00 0.00 66 1010.0
20260506040508 62 49 0.0 3.0 0.00 0.00 0.00 68 1010.0
20260506040003 62 302 0.0 3.0 0.00 0.00 0.00 67 1010.0
20260506035500 62 319 1.0 2.0 0.00 0.00 0.00 68 1010.1
20260506034957 62 248 0.0 2.0 0.00 0.00 0.00 67 1010.2
20260506034455 62 335 0.0 2.0 0.00 0.00 0.00 70 1009.9
20260506033951 61 317 1.0 2.0 0.00 0.00 0.00 73 1010.0
20260506033449 62 288 1.0 2.0 0.00 0.00 0.00 70 1009.8
20260506032945 62 269 0.0 2.0 0.00 0.00 0.00 69 1009.9
20260506032443 62 190 0.0 1.0 0.00 0.00 0.00 68 1010.0
20260506031939 63 224 0.0 2.0 0.00 0.00 0.00 69 1010.0
20260506031437 64 132 0.0 1.0 0.00 0.00 0.00 64 1010.1
20260506030934 63 306 0.0 2.0 0.00 0.00 0.00 67 1010.0
20260506030432 63 274 0.0 2.0 0.00 0.00 0.00 67 1010.1
20260506025928 63 269 0.0 2.0 0.00 0.00 0.00 67 1010.2
20260506025426 63 110 0.0 2.0 0.00 0.00 0.00 66 1010.2
20260506024922 63 273 0.0 2.0 0.00 0.00 0.00 68 1010.3
20260506024419 62 294 0.0 2.0 0.00 0.00 0.00 68 1010.3
20260506023915 62 287 1.0 3.0 0.00 0.00 0.00 70 1010.3
20260506023412 63 208 1.0 3.0 0.00 0.00 0.00 69 1010.3
20260506022909 64 265 0.0 2.0 0.00 0.00 0.00 67 1010.3
20260506022407 64 269 0.0 1.0 0.00 0.00 0.00 66 1010.5
20260506021904 64 155 0.0 1.0 0.00 0.00 0.00 64 1010.3
20260506021401 64 287 1.0 2.0 0.00 0.00 0.00 66 1010.2
20260506020858 65 252 0.0 1.0 0.00 0.00 0.00 64 1010.3
20260506020356 64 211 1.0 1.0 0.00 0.00 0.00 64 1010.3
20260506015853 63 269 1.0 2.0 0.00 0.00 0.00 66 1010.3
20260506015350 62 294 1.0 2.0 0.00 0.00 0.00 72 1010.4
20260506014847 63 322 1.0 2.0 0.00 0.00 0.00 71 1010.3
20260506014344 64 315 0.0 1.0 0.00 0.00 0.00 68 1010.2
20260506013840 64 269 0.0 0.0 0.00 0.00 0.00 66 1010.3
20260506013338 64 129 0.0 0.0 0.00 0.00 0.00 65 1010.1
20260506012834 65 128 0.0 1.0 0.00 0.00 0.00 64 1010.0
20260506012332 66 104 1.0 2.0 0.00 0.00 0.00 62 1009.9
20260506011829 66 269 0.0 2.0 0.00 0.00 0.00 61 1010.0
20260506011325 66 269 1.0 2.0 0.00 0.00 0.00 62 1010.1
20260506010823 66 331 1.0 2.0 0.00 0.00 0.00 65 1009.9
20260506010320 66 102 0.0 1.0 0.00 0.00 0.00 64 1010.0
20260506005817 66 274 0.0 3.0 0.00 0.00 0.00 63 1010.0
20260506005314 65 351 1.0 2.0 0.00 0.00 0.00 64 1009.8
20260506004810 65 223 0.0 2.0 0.00 0.00 0.00 66 1009.9
20260506004308 65 253 0.0 1.0 0.00 0.00 0.00 66 1009.7
20260506003803 66 221 0.0 1.0 0.00 0.00 0.00 65 1009.7
20260506003300 66 269 0.0 2.0 0.00 0.00 0.00 63 1009.7
20260506002756 67 246 0.0 1.0 0.00 0.00 0.00 63 1009.8
20260506002253 67 263 2.0 2.0 0.00 0.00 0.00 62 1009.8
20260506001749 67 275 1.0 2.0 0.00 0.00 0.00 62 1009.7
20260506001246 68 110 1.0 2.0 0.00 0.00 0.00 60 1009.7
20260506000743 68 292 1.0 2.0 0.00 0.00 0.00 60 1009.6
20260506000241 69 265 0.0 1.0 0.00 0.00 0.00 59 1009.5
20260505235737 69 252 0.0 2.0 0.00 0.00 0.00 58 1009.4
20260505235235 69 258 1.0 2.0 0.00 0.00 0.00 58 1009.5
20260505234732 69 230 0.0 1.0 0.00 0.00 0.00 57 1009.4
20260505234229 69 126 0.0 1.0 0.00 0.00 0.00 57 1009.4
20260505233726 69 126 0.0 0.0 0.00 0.00 0.00 57 1009.4
20260505233224 69 227 0.0 0.0 0.00 0.00 0.00 58 1009.5
20260505232721 70 238 1.0 2.0 0.00 0.00 0.00 57 1009.3
20260505232218 70 222 0.0 0.0 0.00 0.00 0.00 57 1009.3
20260505231715 70 210 0.0 2.0 0.00 0.00 0.00 56 1009.5
20260505231214 70 217 0.0 1.0 0.00 0.00 0.00 57 1009.3
20260505230711 70 262 2.0 2.0 0.00 0.00 0.00 60 1009.4
20260505230208 70 241 0.0 1.0 0.00 0.00 0.00 60 1009.5
20260505225704 70 222 1.0 1.0 0.00 0.00 0.00 61 1009.4
20260505225201 70 224 0.0 1.0 0.00 0.00 0.00 60 1009.5
20260505224656 70 217 0.0 1.0 0.00 0.00 0.00 61 1009.5
20260505224155 70 227 0.0 1.0 0.00 0.00 0.00 62 1009.5
20260505223652 70 230 0.0 0.0 0.00 0.00 0.00 62 1009.3
20260505223147 70 129 1.0 2.0 0.00 0.00 0.00 61 1009.4
20260505222644 70 216 1.0 2.0 0.00 0.00 0.00 62 1009.5
20260505222140 70 148 1.0 1.0 0.00 0.00 0.00 61 1009.5
20260505221632 70 103 1.0 2.0 0.00 0.00 0.00 65 1009.6
20260505221129 70 144 1.0 2.0 0.00 0.00 0.00 69 1009.7
20260505220626 70 200 0.0 5.0 0.00 0.00 0.00 66 1009.5
20260505220123 69 147 0.0 1.0 0.00 0.00 0.00 67 1009.5
20260505215621 69 155 0.0 3.0 0.00 0.00 0.00 66 1009.7
20260505215119 69 196 0.0 2.0 0.00 0.00 0.00 67 1009.5
20260505214617 69 214 2.0 2.0 0.00 0.00 0.00 66 1009.6
20260505214114 69 213 2.0 2.0 0.00 0.00 0.00 66 1009.8
20260505213612 68 140 2.0 2.0 0.00 0.00 0.00 68 1009.8
20260505213108 68 148 2.0 2.0 0.00 0.00 0.00 66 1009.6
20260505212604 69 147 0.0 0.0 0.00 0.00 0.00 67 1009.7
20260505212102 69 120 2.0 2.0 0.00 0.00 0.00 61 1009.7
20260505211558 69 271 2.0 2.0 0.00 0.00 0.00 62 1009.7
20260505211055 69 245 2.0 4.0 0.02 0.00 0.00 65 1009.6
20260505210551 69 231 3.0 4.0 0.02 0.00 0.00 64 1009.7
20260505210049 72 133 0.0 4.0 0.00 0.00 0.00 54 1009.5
20260505205546 74 237 2.0 2.0 0.00 0.00 0.00 48 1009.6
20260505205044 74 249 2.0 3.0 0.00 0.00 0.00 45 1009.1
20260505204541 74 155 0.0 3.0 0.00 0.00 0.00 46 1008.9
20260505204038 75 205 0.0 1.0 0.00 0.00 0.00 45 1008.9
20260505203534 75 286 0.0 4.0 0.00 0.00 0.00 43 1009.0
20260505203032 75 263 2.0 3.0 0.00 0.00 0.00 43 1008.9
20260505202528 75 163 1.0 4.0 0.00 0.00 0.00 45 1008.9
20260505202023 75 17 0.0 2.0 0.00 0.00 0.00 44 1009.0
20260505201521 74 227 2.0 2.0 0.00 0.00 0.00 48 1009.1
20260505201018 74 132 2.0 3.0 0.00 0.00 0.00 49 1009.2
20260505200516 74 129 0.0 2.0 0.00 0.00 0.00 46 1009.1
20260505200013 74 223 2.0 7.0 0.00 0.00 0.00 45 1009.0
20260505195509 75 234 3.0 3.0 0.00 0.00 0.00 46 1009.0
20260505195007 75 131 0.0 2.0 0.00 0.00 0.00 43 1009.1
20260505194459 75 131 2.0 2.0 0.00 0.00 0.00 43 1009.1
20260505193958 74 218 0.0 3.0 0.00 0.00 0.00 46 1009.1
20260505193456 74 232 2.0 5.0 0.00 0.00 0.00 45 1009.1
20260505192953 75 187 2.0 3.0 0.00 0.00 0.00 43 1009.1
20260505192451 75 230 2.0 5.0 0.00 0.00 0.00 41 1009.2
20260505191948 76 218 3.0 6.0 0.00 0.00 0.00 39 1009.1
20260505191447 76 191 4.0 6.0 0.00 0.00 0.00 38 1009.0
20260505190944 76 266 2.0 6.0 0.00 0.00 0.00 39 1008.9
20260505190439 76 184 2.0 5.0 0.00 0.00 0.00 39 1009.0
20260505185935 77 197 4.0 7.0 0.00 0.00 0.00 38 1008.9
20260505185433 77 103 2.0 4.0 0.00 0.00 0.00 39 1008.9
20260505184928 77 206 2.0 6.0 0.00 0.00 0.00 38 1008.8
20260505184426 77 215 3.0 6.0 0.00 0.00 0.00 39 1008.9
20260505183922 77 120 3.0 5.0 0.00 0.00 0.00 40 1009.0
20260505183419 76 115 4.0 8.0 0.00 0.00 0.00 39 1008.9
20260505182916 76 119 4.0 12.0 0.00 0.00 0.00 38 1008.8
20260505182412 77 102 5.0 6.0 0.00 0.00 0.00 38 1008.6
20260505181908 79 227 4.0 9.0 0.00 0.00 0.00 38 1009.0
20260505181406 80 137 4.0 7.0 0.00 0.00 0.00 35 1009.0
20260505180902 79 84 2.0 7.0 0.00 0.00 0.00 38 1009.2
20260505180359 78 60 2.0 4.0 0.00 0.00 0.00 38 1009.3
20260505175855 78 134 4.0 4.0 0.00 0.00 0.00 37 1009.2
20260505175352 79 153 2.0 5.0 0.00 0.00 0.00 38 1009.3
20260505174848 78 111 2.0 6.0 0.00 0.00 0.00 38 1009.6
20260505174346 78 182 1.0 7.0 0.00 0.00 0.00 39 1009.5
20260505173842 80 170 2.0 5.0 0.00 0.00 0.00 38 1009.5
20260505173339 79 326 2.0 9.0 0.00 0.00 0.00 38 1009.6
20260505172836 79 206 6.0 9.0 0.00 0.00 0.00 38 1009.4
20260505172334 79 111 2.0 5.0 0.00 0.00 0.00 40 1009.6
20260505171833 78 97 8.0 11.0 0.00 0.00 0.00 39 1009.7
20260505171330 78 148 4.0 5.0 0.00 0.00 0.00 43 1009.8
20260505170826 77 224 2.0 5.0 0.00 0.00 0.00 46 1009.7
20260505170323 76 86 3.0 7.0 0.00 0.00 0.00 42 1009.7
20260505165819 77 260 6.0 6.0 0.00 0.00 0.00 41 1009.9
20260505165314 77 259 2.0 4.0 0.00 0.00 0.00 42 1009.7
20260505164810 76 189 3.0 5.0 0.00 0.00 0.00 43 1009.7
20260505164308 76 147 5.0 5.0 0.00 0.00 0.00 43 1009.8
20260505163806 78 106 4.0 4.0 0.00 0.00 0.00 42 1010.0
20260505163304 76 180 0.0 6.0 0.00 0.00 0.00 45 1009.9
20260505162802 75 246 3.0 9.0 0.00 0.00 0.00 44 1010.0
20260505162258 75 268 4.0 7.0 0.00 0.00 0.00 44 1009.8
20260505161755 75 138 3.0 7.0 0.00 0.00 0.00 45 1009.9
20260505161252 76 130 3.0 6.0 0.00 0.00 0.00 45 1010.0
20260505160750 76 235 4.0 6.0 0.00 0.00 0.00 44 1010.1
20260505160247 78 129 5.0 5.0 0.00 0.00 0.00 42 1010.3
20260505153226 77 127 5.0 5.0 0.00 0.00 0.00 46 1010.8
20260505152724 77 204 2.0 8.0 0.00 0.00 0.00 45 1010.6
20260505152220 77 247 6.0 11.0 0.00 0.00 0.00 44 1010.6
20260505151714 76 225 3.0 9.0 0.00 0.00 0.00 45 1010.5
20260505151212 76 71 2.0 6.0 0.00 0.00 0.00 47 1010.5
20260505150708 75 224 5.0 5.0 0.00 0.00 0.00 49 1010.4
20260505150206 75 284 3.0 4.0 0.00 0.00 0.00 51 1010.3
20260505140639 72 269 3.0 10.0 0.00 0.00 0.00 52 1010.4
20260505140136 72 111 2.0 7.0 0.00 0.00 0.00 53 1010.1
20260505124549 67 234 1.0 6.0 0.00 0.00 0.00 58 1010.4
20260505124045 67 67 2.0 4.0 0.00 0.00 0.00 59 1010.4
20260505123542 66 153 2.0 4.0 0.00 0.00 0.00 60 1010.3
20260505123038 66 227 1.0 4.0 0.00 0.00 0.00 61 1010.5
20260505122535 66 80 0.0 4.0 0.00 0.00 0.00 61 1010.6
20260505122032 65 177 0.0 3.0 0.00 0.00 0.00 65 1010.6
20260505121528 64 131 2.0 3.0 0.00 0.00 0.00 65 1010.6
20260505121025 64 204 1.0 4.0 0.00 0.00 0.00 65 1010.7
20260505120522 63 125 2.0 4.0 0.00 0.00 0.00 66 1010.9
20260505120017 63 54 0.0 4.0 0.00 0.00 0.00 66 1010.8
20260505115512 63 178 2.0 2.0 0.00 0.00 0.00 67 1010.7
20260505115010 63 187 4.0 4.0 0.00 0.00 0.00 67 1010.8
20260505114507 63 278 0.0 3.0 0.00 0.00 0.00 67 1010.7
20260505114003 63 156 1.0 2.0 0.00 0.00 0.00 66 1010.6
20260505113500 63 241 0.0 3.0 0.00 0.00 0.00 66 1010.7
20260505112955 63 136 1.0 3.0 0.00 0.00 0.00 64 1010.5
20260505112453 63 140 5.0 5.0 0.00 0.00 0.00 63 1010.5
20260505111950 63 124 2.0 3.0 0.00 0.00 0.00 65 1010.7
20260505111449 63 266 4.0 4.0 0.00 0.00 0.00 65 1010.5
20260505110946 62 125 2.0 4.0 0.00 0.00 0.00 65 1010.6
20260505110443 62 73 0.0 4.0 0.00 0.00 0.00 65 1010.5
20260505101908 61 110 1.0 3.0 0.00 0.00 0.00 69 1010.1
20260505101402 60 233 2.0 4.0 0.00 0.00 0.00 66 1010.1
20260505100859 61 215 2.0 4.0 0.00 0.00 0.00 65 1010.0
20260505100355 60 336 1.0 4.0 0.00 0.00 0.00 67 1010.0
20260505095851 59 230 1.0 2.0 0.00 0.00 0.00 69 1010.0
20260505095349 59 242 4.0 4.0 0.00 0.00 0.00 70 1010.1
20260505094845 59 178 0.0 3.0 0.00 0.00 0.00 71 1010.2
20260505094342 59 274 2.0 2.0 0.00 0.00 0.00 71 1009.9
20260505093837 59 291 0.0 2.0 0.00 0.00 0.00 71 1010.0
20260505093335 59 311 0.0 3.0 0.00 0.00 0.00 71 1010.1
20260505092832 58 305 2.0 3.0 0.00 0.00 0.00 72 1010.0
20260505092330 58 205 3.0 3.0 0.00 0.00 0.00 72 1010.2
20260505091827 59 288 2.0 3.0 0.00 0.00 0.00 72 1010.2
20260505091325 59 284 2.0 3.0 0.00 0.00 0.00 72 1010.1
20260505090823 60 323 2.0 2.0 0.00 0.00 0.00 69 1009.8
20260505090321 61 277 3.0 3.0 0.00 0.00 0.00 66 1009.5
20260505085818 61 173 2.0 4.0 0.00 0.00 0.00 65 1009.3
20260505085316 60 61 0.0 4.0 0.00 0.00 0.00 67 1009.4
20260505084813 60 264 0.0 4.0 0.00 0.00 0.00 67 1009.3
20260505084312 60 92 0.0 4.0 0.00 0.00 0.00 67 1009.4
20260505083808 60 237 2.0 2.0 0.00 0.00 0.00 70 1009.3
20260505083306 61 320 2.0 5.0 0.00 0.00 0.00 67 1009.3
20260505082801 61 300 2.0 4.0 0.00 0.00 0.00 67 1009.3
20260505082259 61 255 2.0 3.0 0.00 0.00 0.00 66 1009.5
20260505081754 62 110 1.0 4.0 0.00 0.00 0.00 66 1009.5
20260505081252 62 251 1.0 9.0 0.00 0.00 0.00 65 1009.4
20260505080749 61 285 2.0 3.0 0.00 0.00 0.00 64 1009.5
20260505080244 60 265 2.0 7.0 0.00 0.00 0.00 67 1009.6
20260505075740 60 204 0.0 2.0 0.00 0.00 0.00 67 1009.5
20260505075237 59 282 2.0 4.0 0.00 0.00 0.00 68 1009.5
20260505074735 59 358 1.0 3.0 0.00 0.00 0.00 69 1009.5
20260505074232 60 143 2.0 3.0 0.00 0.00 0.00 67 1009.6
20260505073729 60 283 2.0 2.0 0.00 0.00 0.00 67 1009.5
20260505073227 60 334 1.0 3.0 0.00 0.00 0.00 67 1009.3
20260505072723 60 355 1.0 3.0 0.00 0.00 0.00 65 1009.1
20260505072219 61 357 2.0 3.0 0.00 0.00 0.00 64 1009.4
20260505071715 61 309 0.0 3.0 0.00 0.00 0.00 64 1009.3
20260505071212 61 271 3.0 3.0 0.00 0.00 0.00 64 1009.2
20260505070710 61 229 1.0 2.0 0.00 0.00 0.00 64 1009.2
20260505070206 61 81 0.0 2.0 0.00 0.00 0.00 64 1009.2
20260505065702 61 227 1.0 3.0 0.00 0.00 0.00 63 1009.2
20260505065159 61 358 1.0 2.0 0.00 0.00 0.00 64 1009.4
20260505064656 61 323 2.0 3.0 0.00 0.00 0.00 65 1009.2
20260505064154 61 271 1.0 4.0 0.00 0.00 0.00 63 1009.3
20260505063651 59 57 1.0 3.0 0.00 0.00 0.00 67 1009.4
20260505063147 59 305 2.0 4.0 0.00 0.00 0.00 66 1009.5
20260505062643 59 293 2.0 4.0 0.00 0.00 0.00 68 1009.6
20260505062141 60 89 0.0 3.0 0.00 0.00 0.00 66 1009.3
20260505061638 60 355 2.0 4.0 0.00 0.00 0.00 64 1009.4
20260505061136 61 89 0.0 3.0 0.00 0.00 0.00 64 1009.4
20260505060633 62 283 1.0 3.0 0.00 0.00 0.00 62 1009.6
20260505060130 61 177 1.0 3.0 0.00 0.00 0.00 63 1009.5
20260505055625 61 6 0.0 2.0 0.00 0.00 0.00 62 1009.6